STARLINK-31510, 59575

Orbit data source: Space-Track

STARLINK-31510, 59575 is a payload satellite owned by SpaceX/Seattle (US) in LEO that was launched on Tue, 23 Apr 2024 UTC via an FALCON 9 launch vehicle from the Air Force Eastern Test Range (AFETR). Payload-class satellites include a variety of spacecraft equipped with specific instruments for various scientific and technological missions. These include communications satellites like Starlink; space stations such as the ISS; scientific satellites like the Hubble; Earth observation satellites from companies like Planet Labs, Umbra, and HawkEye 360; GPS; miniature CubeSats for education and research; and military/defense satellites.

Loading next visibility...
Identifier
59575, 2024-076M
Orbit
LEO
Country
Flag of USUS
Related business
Manufacturer
SpaceX/Seattle
Mission
Operational Commercial Communications
Bus & Motor
STARLINK V2M, Unknown motor
Mass
730 kg wet, ~700 kg dry
Launch date (UTC)
2024-04-23 (2 years ago)
Launch vehicle
FALCON 9
Launch site
Air Force Eastern Test Range (AFETR)
Object type
Payload
Rocket body
Debris
Shape & HBR
Box + 2 Pan, 17.7 m
Radar Cross Section
33.884 m², Large (>1 m²)

Expand to show TLE details & history
Last TLE update: 14 hours ago

TLE from 14 hours ago
0 STARLINK-31510
1 59575U 24076M   26035.48628442 -.00000237  00000-0  89259-6 0  9996
2 59575  43.0022 193.1528 0001082 262.8924  97.1804 15.27570277101461
Epoch: 2026-02-04T11:40Z
TLE epoch observation values (Epoch: 2026-02-04T11:40:14.973Z)
Latitude
-0.00008°
Longitude
-116.56185°
Altitude
482.947 km
Speed
7.626 km/s
True Right ascension
12h 52m 36s
True Declination
0° 00' 00"
Sunlit
Object was in full shadow at epoch
Visualization orbit readout
Latitude
Unknown
Longitude
Unknown
Altitude
Unknown
Speed
Unknown
Apparent Right ascension
Unknown
Apparent Declination
Unknown
Sunlit
N/A
Visualization observer readout
Local Sidereal Time
03:53:16
Azimuth
Unknown
Elevation
Unknown
Doppler factor
Unknown
Orbital elements
Apogee altitude
485.766 km
Perigee altitude
484.28 km
Semi-major axis
6,863.16 km
Eccentricity
0.00011
Inclination
43.0022°
RAAN
193.1528°
Arg. of periapsis
262.8924°
True anomaly
97.1927°
Mean anomaly
97.1804°
Eccentric anomaly
97.18655°
Mean motion
3.81731 °/min
Orbital period
94.31 mins
BSTAR
8.9259e-7
Loading maneuver chart data...
Computing Atmospheric mass density...
Loading historical data...
Loading historical data...
Loading historical data...
Loading historical data...
Loading historical data...
Loading historical data...
Loading historical data...

Documentation

Showing up to 5 results
|